Ketchikan, AK

5:20 PM AKST on February 20, 2019 (GMT -0900)
Ketchikan International

Weather History for PAKT - January, 2019

Change the Weather History Date:

Friday, January 11, 2019

  Actual Average Record
Temperature  
Mean Temperature 39 °F -  
Max Temperature 45 °F 36 °F 50 °F (1981)
Min Temperature 33 °F 23 °F 1 °F (1998)
Degree Days  
Heating Degree Days 26    
Moisture  
Dew Point 39 °F    
Average Humidity 96    
Maximum Humidity 100    
Minimum Humidity 87    
Precipitation  
Precipitation 0.60 in - - ()
Sea Level Pressure  
Sea Level Pressure 29.68 in    
Wind  
Wind Speed 8 mph (SE)    
Max Wind Speed 17 mph    
Max Gust Speed 24 mph    
Visibility 5 miles    
Events Fog , Rain    
Averages and records for this station are not official NWS values.
T = Trace of Precipitation, MM = Missing Value Source: NWS Daily Summary

Daily Weather History Graph

Daily Weather History Graph

Search for Another Location

Airport or City:

Astronomy

Jan. 11, 2019 Rise Set
Actual Time 8:08 AM AKST 3:41 PM AKST
Civil Twilight 7:24 AM AKST 4:25 PM AKST
Nautical Twilight 6:37 AM AKST 5:12 PM AKST
Astronomical Twilight 5:53 AM AKST 5:56 PM AKST
Moon 10:45 AM AKST (1/11) 9:58 PM AKST (1/11)
Length of Visible Light 9h 01m
Length of Day
7h 33m
Waxing Crescent, 27% of the Moon is Illuminated
Jan 11
Waxing Crescent
Jan 13
First Quarter
Jan 20
Full
Jan 27
Last Quarter
Feb 4
New

Hourly Weather History & Observations

Time (AKST) Temp. Windchill Dew Point Humidity Pressure Visibility Wind Dir Wind Speed Gust Speed Precip Events Conditions
12:01 AM 45.0 °F 37.6 °F 43.0 °F 93% 29.50 in 4.0 mi SE 17.3 mph 24.2 mph 0.02 in Rain Rain
12:08 AM 45.0 °F 37.9 °F 43.0 °F 93% 29.50 in 4.0 mi SE 16.1 mph 24.2 mph 0.04 in Rain Rain
12:53 AM 44.1 °F 37.1 °F 43.0 °F 96% 29.51 in 5.0 mi SE 15.0 mph - 0.12 in Rain Rain
1:53 AM 44.1 °F 37.7 °F 43.0 °F 96% 29.52 in 4.0 mi SE 12.7 mph - 0.12 in Rain Rain
2:02 AM 44.1 °F 39.0 °F 43.0 °F 96% 29.51 in 4.0 mi SE 9.2 mph - 0.02 in Rain Rain
2:53 AM 44.1 °F 39.0 °F 43.0 °F 96% 29.52 in 5.0 mi SSE 9.2 mph - 0.11 in Rain Rain
3:53 AM 44.1 °F 40.8 °F 42.1 °F 93% 29.52 in 7.0 mi SSE 5.8 mph - 0.08 in Rain Light Rain
4:53 AM 44.1 °F 41.5 °F 42.1 °F 93% 29.51 in 10.0 mi South 4.6 mph - 0.05 in Rain Light Rain
5:53 AM 43.0 °F 41.3 °F 42.1 °F 97% 29.52 in 8.0 mi SSE 3.5 mph - 0.04 in Rain Light Rain
6:04 AM 43.0 °F 41.3 °F 42.1 °F 97% 29.51 in 9.0 mi SSE 3.5 mph - 0.01 in Rain Light Rain
6:53 AM 42.1 °F 40.2 °F 39.9 °F 92% 29.54 in 10.0 mi East 3.5 mph - 0.03 in Rain Light Rain
7:53 AM 41.0 °F 39.0 °F 39.9 °F 96% 29.57 in 3.0 mi SE 3.5 mph - 0.01 in Rain Light Rain
8:53 AM 41.0 °F 38.0 °F 39.9 °F 96% 29.61 in 3.0 mi SE 4.6 mph - 0.03 in Rain Light Rain
9:53 AM 41.0 °F 38.0 °F 41.0 °F 100% 29.64 in 3.0 mi SSE 4.6 mph - 0.01 in   Overcast
10:53 AM 42.1 °F 38.4 °F 41.0 °F 96% 29.66 in 10.0 mi SSE 5.8 mph - N/A   Overcast
11:53 AM 42.8 °F 41.1 °F 41.0 °F 93% 29.69 in 10.0 mi South 3.5 mph - N/A   Overcast
12:53 PM 42.8 °F 39.3 °F 41.0 °F 93% 29.70 in 10.0 mi SSE 5.8 mph - N/A   Overcast
1:53 PM 42.8 °F 38.6 °F 41.0 °F 93% 29.70 in 10.0 mi SE 6.9 mph - N/A   Overcast
2:53 PM 42.8 °F 38.6 °F 41.0 °F 93% 29.72 in 10.0 mi SE 6.9 mph - N/A   Overcast
3:53 PM 42.8 °F 40.1 °F 39.2 °F 87% 29.73 in 10.0 mi SSE 4.6 mph - N/A   Mostly Cloudy
4:53 PM 42.1 °F 39.2 °F 39.9 °F 92% 29.74 in 10.0 mi South 4.6 mph - N/A   Mostly Cloudy
5:53 PM 41.0 °F 39.0 °F 39.9 °F 96% 29.75 in 8.0 mi SE 3.5 mph - N/A   Overcast
6:53 PM 39.9 °F 37.8 °F 39.0 °F 97% 29.76 in 10.0 mi SE 3.5 mph - N/A   Overcast
7:53 PM 39.2 °F 35.9 °F 39.2 °F 100% 29.78 in 5.0 mi SE 4.6 mph - N/A   Overcast
8:53 PM 37.9 °F 34.4 °F 37.9 °F 100% 29.80 in 3.0 mi SSE 4.6 mph - N/A   Overcast
9:36 PM 37.0 °F - 36.0 °F 96% 29.80 in 3.0 mi Calm Calm - N/A   Overcast
9:48 PM 35.6 °F - 35.6 °F 100% 29.81 in 3.0 mi Calm Calm - N/A   Overcast
9:53 PM 35.1 °F - 35.1 °F 100% 29.81 in 3.0 mi Calm Calm - N/A   Overcast
9:57 PM 36.0 °F - 35.1 °F 97% 29.81 in 0.2 mi Calm Calm - N/A Fog Fog
10:11 PM 36.0 °F - 36.0 °F 100% 29.81 in 0.5 mi Calm Calm - N/A Fog Fog
10:18 PM 36.0 °F - 36.0 °F 100% 29.81 in 0.2 mi Calm Calm - N/A Fog Fog
10:53 PM 35.1 °F - 35.1 °F 100% 29.82 in 0.2 mi Calm Calm - N/A Fog Fog
11:27 PM 34.0 °F - 34.0 °F 100% 29.82 in 0.2 mi Calm Calm - N/A Fog Fog
11:41 PM 34.0 °F 31.0 °F 33.1 °F 96% 29.83 in 0.2 mi SE 3.5 mph - N/A Fog Fog
11:48 PM 33.8 °F - 33.8 °F 100% 29.83 in 0.5 mi Calm Calm - N/A Fog Fog
11:53 PM 33.1 °F 30.0 °F 33.1 °F 100% 29.83 in 0.5 mi SSE 3.5 mph - N/A Fog Fog